Theta_e
306 307 309 309 310 309 308 309 309 312 313 312 312 312 312 312 314 312 310 310 311 311 312 310 310 310 309 308 308 307 307 308 306 309 312 307 309 311 315 315 318 318 320
303 303 303 308 307 307 308 310 311 311 311 310 311 312 314 312 313 312 312 311 313 312 313 312 309 313 310 308 308 307 307 308 308 303 308 304 307 313 315 318 320 323 323
305 306 305 304 304 306 308 311 310 312 312 312 312 313 314 314 314 313 314 311 311 310 311 312 307 308 309 309 310 309 309 311 306 305 306 306 306 313 316 317 317 319 322
306 305 303 304 305 306 308 310 312 312 311 309 309 311 314 314 314 315 312 310 311 313 311 311 308 307 308 307 309 308 308 309 309 309 309 308 308 313 317 314 314 316 316
304 304 304 305 306 307 307 309 311 312 313 312 310 309 312 313 314 312 308 310 307 309 313 311 309 311 316 313 310 308 307 308 308 309 309 308 311 313 312 313 312 311 308
303 302 304 306 306 306 306 307 309 313 312 312 312 313 311 315 310 310 310 310 311 310 312 310 310 313 309 312 315 314 312 310 308 308 309 310 310 311 312 309 307 304 302
301 303 303 304 304 304 306 306 306 308 309 310 312 312 312 309 307 307 309 307 307 307 311 308 311 313 311 310 312 313 313 313 312 310 308 308 308 307 306 302 300 299 299
299 300 302 302 303 304 304 305 307 308 308 309 311 311 309 311 308 304 307 307 307 306 308 308 310 305 306 309 309 313 312 311 312 313 308 308 309 310 309 307 306 308 309
300 300 301 302 303 304 302 302 304 305 307 309 310 310 307 308 306 302 304 308 306 305 308 313 312 309 302 304 314 311 306 304 311 309 308 305 305 307 309 309 305 303 302
300 300 301 302 301 301 300 302 303 304 308 312 312 310 310 312 305 301 301 304 303 304 306 312 308 308 301 303 312 308 303 302 303 302 303 305 304 308 309 309 307 304 303
300 301 301 304 302 300 299 302 304 305 308 307 310 311 309 311 306 299 300 302 303 309 307 309 307 301 299 301 300 306 305 304 303 306 306 305 306 303 304 309 309 307 304
300 300 300 299 300 300 297 298 304 306 306 305 308 309 311 312 306 299 298 300 304 308 308 309 310 299 297 300 298 297 298 301 301 301 300 303 305 305 303 305 309 309 305
298 298 298 298 297 298 297 298 299 302 304 305 306 305 307 312 308 303 299 298 302 307 308 305 302 298 297 297 299 298 299 299 300 301 301 301 303 307 305 304 308 308 308
297 297 297 295 295 296 301 302 298 303 302 301 301 304 306 311 310 303 300 300 302 304 305 305 301 299 298 299 298 298 298 298 299 299 300 301 305 306 307 306 306 306 305
297 297 297 298 293 295 299 301 302 300 301 299 299 301 303 306 305 299 298 302 302 302 302 302 299 298 297 297 298 300 298 297 297 298 299 301 307 307 306 307 306 304 303
296 295 295 298 294 298 296 300 299 298 297 296 293 294 301 298 296 297 296 295 295 296 301 300 298 298 299 299 299 300 300 302 300 300 300 300 302 307 309 305 304 307 305
298 296 294 295 297 297 296 298 298 302 301 299 296 292 294 294 294 295 295 294 294 297 301 302 303 306 306 305 306 304 305 306 305 303 303 302 301 301 305 308 309 308 306
300 296 293 295 297 297 297 297 298 298 300 300 299 292 294 294 294 295 294 298 303 300 300 301 306 307 306 309 310 309 309 306 307 305 303 303 303 303 302 303 306 307 305
296 295 294 295 296 294 292 292 294 296 298 297 298 298 299 295 294 294 293 301 302 303 305 304 302 304 306 306 309 308 310 307 304 304 302 302 302 301 300 300 300 297 300
296 297 295 296 294 295 291 292 292 293 293 294 294 295 295 295 299 302 303 304 303 305 306 306 307 305 305 305 306 306 306 308 304 304 302 304 302 300 301 300 300 299 299
297 296 294 293 294 296 294 292 293 292 292 292 293 295 286 294 299 302 302 305 306 304 308 309 308 310 306 306 307 308 307 308 306 305 304 303 303 301 302 302 301 300 300
297 297 296 293 293 295 296 293 293 293 293 293 294 294 288 295 296 300 302 303 304 304 304 305 306 307 309 309 310 307 305 305 306 306 305 303 302 302 301 301 301 302 302
298 297 296 294 293 293 293 294 292 292 294 294 294 294 294 294 295 296 299 302 303 302 304 307 308 307 310 310 310 308 304 304 305 306 308 308 306 304 303 302 302 302 302
297 296 295 295 294 294 294 293 293 292 293 293 293 293 294 295 295 296 297 297 298 299 300 301 304 305 311 311 309 307 304 302 305 306 307 307 308 305 307 306 304 304 304
295 294 294 295 295 295 296 295 295 294 294 294 294 293 294 294 295 296 296 297 297 298 299 300 302 306 311 309 306 301 291 287 296 289 301 306 307 308 307 307 308 308 307
295 295 296 296 296 296 296 296 296 296 295 295 295 294 294 294 297 296 295 296 296 297 299 300 301 306 309 308 303 293 285 286 291 285 292 300 304 308 307 308 307 307 309
Wind_Speed
3 3 5 6 6 6 6 6 7 9 9 6 7 6 6 5 6 6 5 6 5 6 4 3 6 4 2 3 3 3 4 5 6 3 2 3 2 3 3 4 3 3 3
2 3 5 6 7 7 6 7 9 10 6 8 6 6 5 5 6 6 5 4 5 5 4 3 4 3 4 5 3 4 4 4 4 4 1 2 4 2 5 8 4 3 5
2 3 5 5 6 7 7 9 8 9 7 5 6 5 4 3 6 6 6 5 6 2 3 3 3 3 4 3 2 2 0 1 1 2 3 1 3 2 7 7 6 10 8
6 5 5 6 5 6 7 7 7 5 4 4 5 5 5 2 4 6 5 6 5 2 2 2 2 2 3 2 4 2 3 2 2 2 3 2 2 1 4 7 8 6 7
6 7 7 6 6 6 7 7 7 5 4 5 4 6 6 4 4 6 5 6 4 2 1 2 2 1 2 0 3 3 3 2 3 3 7 3 3 5 7 4 6 5 5
6 7 7 6 6 7 7 7 6 4 4 5 6 6 6 3 8 7 7 6 5 5 3 5 3 1 5 6 1 6 5 2 3 4 3 6 7 5 5 5 5 4 3
6 6 6 7 7 7 7 7 6 4 4 3 5 3 4 5 9 8 10 6 6 3 3 4 1 3 1 2 3 5 3 4 3 3 4 3 4 3 4 4 3 3 3
6 6 7 6 7 7 7 7 7 4 4 3 4 4 5 4 6 9 11 6 5 5 4 3 3 2 2 1 5 1 5 4 2 5 6 5 4 6 5 4 5 4 4
6 6 8 7 8 7 7 7 7 5 5 3 4 4 5 4 7 8 8 5 4 4 2 4 3 3 2 6 3 4 3 4 6 9 8 7 6 9 8 6 3 3 2
7 7 7 6 7 7 6 8 6 5 4 3 4 2 6 5 8 11 7 3 4 3 2 5 9 5 4 1 5 6 4 1 3 4 3 5 6 7 9 6 6 4 2
6 6 7 9 6 6 6 5 5 4 3 4 5 4 3 3 5 7 10 4 4 3 3 3 1 8 5 7 6 6 3 3 3 3 3 3 3 4 3 4 4 5 4
6 6 7 7 7 6 7 6 6 5 4 4 4 3 3 1 2 7 8 5 5 3 3 1 1 9 9 8 5 5 7 6 3 3 3 2 1 1 2 2 3 2 3
6 6 6 7 7 7 6 6 4 5 4 4 3 4 5 2 2 2 7 11 5 2 1 2 5 10 9 5 6 6 6 3 2 2 1 2 3 3 4 2 0 2 1
6 6 6 6 7 7 6 4 4 3 4 3 3 3 5 2 2 2 3 5 6 3 1 3 4 5 4 3 1 1 1 2 2 2 2 3 1 3 4 2 2 1 1
4 5 6 4 5 5 5 4 4 1 2 2 2 3 4 4 3 3 2 4 4 3 4 2 3 2 1 0 1 3 3 1 2 2 2 3 0 2 1 3 3 2 3
3 4 5 3 4 4 4 5 2 3 6 3 4 1 2 3 8 5 4 7 6 7 2 3 3 3 3 3 4 4 3 5 4 3 3 2 2 3 3 2 1 3 4
2 4 3 4 4 4 3 4 6 7 6 7 7 7 4 7 8 2 4 4 4 4 2 2 2 3 4 4 5 5 4 5 4 5 4 5 4 3 3 3 4 5 4
3 5 2 3 4 4 3 3 2 3 5 7 3 4 7 8 10 3 4 4 1 1 2 3 3 4 4 5 6 5 5 5 6 5 5 5 5 4 4 4 4 4 5
3 3 3 4 3 2 2 3 3 3 4 4 3 4 6 9 5 5 4 2 0 1 2 3 3 3 4 2 2 1 3 4 5 4 5 5 5 4 5 5 5 6 4
3 7 3 3 3 2 1 1 3 3 3 4 4 3 4 5 4 4 2 1 2 3 3 3 2 3 3 3 2 2 3 2 1 4 5 5 5 5 5 5 5 4 4
3 4 7 3 4 4 2 3 2 2 4 4 3 3 1 2 3 3 3 4 3 3 3 2 1 2 1 1 1 1 3 2 3 4 4 4 4 4 5 4 4 5 5
4 4 4 4 4 4 3 4 4 3 4 4 4 3 3 0 2 3 2 2 3 2 1 2 1 1 2 4 2 1 3 4 2 1 2 3 4 5 4 4 5 4 4
5 5 4 4 4 5 4 5 4 5 5 5 4 4 3 3 3 3 3 3 2 2 3 2 2 2 1 2 2 3 4 2 2 2 3 3 2 1 1 4 4 4 3
5 6 5 5 4 4 5 5 5 7 6 5 5 5 4 4 4 5 4 4 3 3 3 3 2 3 4 4 2 3 3 1 3 3 6 1 2 2 2 2 1 3 2
6 6 5 6 5 5 5 6 5 5 6 6 5 5 5 5 5 5 5 4 4 4 4 4 4 5 5 5 4 2 3 3 3 2 3 4 5 4 3 2 3 3 3
7 6 7 5 5 5 5 6 7 6 6 6 6 6 6 6 6 5 5 5 4 4 5 4 5 6 7 7 6 5 4 4 3 2 2 3 4 3 2 4 5 3 5
Wind_Direction
201 212 252 255 265 278 281 285 270 267 254 227 231 254 246 251 254 245 230 250 252 269 283 270 280 282 254 243 227 204 217 208 241 268 269 297 322 107 131 121 140 154 215
191 238 274 265 299 281 284 279 282 283 248 225 220 238 241 246 256 247 238 231 236 272 308 249 296 327 250 247 229 235 227 236 215 233 10 316 11 33 93 117 101 113 89
264 306 318 290 297 295 286 278 282 283 267 250 236 219 220 257 273 261 220 206 229 253 299 251 301 333 317 282 269 293 255 29 77 167 182 58 2 7 92 89 93 87 95
317 340 314 312 301 302 290 302 293 281 276 250 258 243 238 280 270 263 230 191 219 208 299 196 253 5 310 316 42 186 56 15 336 324 135 114 104 1 90 105 85 68 79
353 352 324 306 311 314 318 313 308 308 245 250 255 245 227 229 247 251 197 176 189 207 21 305 213 251 322 354 161 137 105 351 343 337 113 130 138 106 114 89 98 88 48
357 332 324 324 318 314 316 317 327 339 322 286 262 240 224 228 236 251 194 177 184 217 80 297 244 37 9 37 140 170 142 146 6 47 65 96 91 95 115 115 114 96 86
349 332 348 339 316 314 326 324 314 300 303 307 325 303 247 239 235 233 177 174 161 172 204 245 22 93 17 22 52 57 356 220 160 125 77 59 86 128 119 108 95 108 148
339 332 330 325 319 323 326 318 314 288 311 321 307 316 269 253 229 222 165 163 156 182 197 218 224 125 301 174 116 58 32 39 299 165 163 168 166 170 144 150 147 121 57
339 333 327 319 317 328 327 317 309 282 284 292 284 318 294 260 212 203 156 154 171 208 230 222 236 177 229 288 165 141 36 21 62 77 98 113 187 172 146 111 121 104 59
329 318 311 313 324 315 322 311 303 300 276 281 319 268 309 269 207 207 165 149 166 186 222 250 245 176 174 88 133 146 134 230 51 43 47 58 63 92 137 144 145 139 153
318 320 326 329 316 332 320 304 323 322 339 338 24 322 307 171 209 195 159 163 179 171 198 217 152 148 164 106 108 136 166 130 39 46 28 22 37 63 99 126 158 147 144
329 329 328 328 330 330 327 323 324 332 336 352 355 347 339 78 107 167 181 167 199 163 176 252 238 180 171 141 117 131 118 99 87 77 47 345 320 170 228 204 183 165 180
326 326 326 324 323 325 318 333 326 330 7 3 8 352 337 257 226 221 231 165 163 152 165 299 300 187 172 164 167 161 122 105 109 79 2 275 217 159 149 170 236 34 53
325 325 317 329 327 328 326 333 320 330 9 356 354 355 338 74 92 54 161 147 159 190 201 46 86 116 87 113 131 278 175 153 159 178 251 268 280 161 172 152 133 120 73
327 323 312 303 324 318 313 332 327 16 333 329 334 338 337 360 43 349 350 159 167 187 137 87 66 70 148 136 301 266 280 240 234 205 254 294 192 121 218 181 153 147 174
330 327 312 309 316 309 340 335 359 345 312 316 285 249 331 279 9 313 48 75 110 155 105 142 159 200 220 217 226 246 239 225 227 210 178 239 247 219 199 161 123 201 201
262 289 324 332 308 329 339 20 7 333 280 295 288 304 306 318 315 36 119 126 192 106 159 181 183 215 224 228 226 217 232 226 198 196 227 191 205 261 183 212 221 218 237
296 286 313 295 303 310 341 11 40 357 351 332 328 292 332 325 324 359 92 98 135 76 167 201 213 208 235 248 254 217 234 215 213 204 212 225 233 215 210 214 202 195 215
285 275 287 295 306 280 341 342 354 2 339 337 338 338 330 351 359 81 80 101 200 275 254 246 226 228 244 221 276 245 280 265 199 182 204 202 215 191 232 221 204 202 195
271 296 280 280 287 196 276 326 350 342 338 335 340 323 331 359 359 354 359 245 204 237 254 235 237 196 208 192 195 200 187 45 191 197 210 198 207 195 214 212 208 206 210
247 261 263 285 256 248 231 260 232 260 291 304 285 259 226 58 346 6 360 357 34 45 17 28 334 312 197 232 128 295 81 64 201 220 216 232 206 204 206 210 220 222 220
238 251 260 237 238 246 247 243 262 266 258 265 285 297 306 218 309 321 354 350 354 9 8 44 18 212 196 173 167 242 100 112 25 350 99 238 200 223 193 221 231 218 209
230 245 247 231 235 245 264 248 247 257 253 246 254 262 263 250 254 246 271 298 317 318 321 5 34 353 85 143 125 138 129 145 106 304 40 57 349 120 179 230 233 251 213
221 229 241 233 233 232 241 250 243 239 244 250 250 256 252 250 250 245 241 249 263 279 282 296 259 248 168 140 166 140 143 173 34 340 302 199 132 345 359 97 32 121 262
211 228 232 230 233 236 245 248 244 240 232 227 234 235 242 236 243 241 237 240 250 256 270 270 269 245 187 171 167 122 79 99 130 242 289 300 267 243 214 220 168 211 194
215 216 225 228 236 232 231 242 247 240 241 232 219 220 228 227 227 225 232 232 239 244 244 249 240 224 196 173 168 167 184 198 191 240 261 272 288 289 302 280 254 208 234